Regional Weather Roundup
Issued by NWS

Home | Current Version | Previous Version | Text Only | Print | Product List | Glossary Off
Versions: 1 2 3 4 5 6 7 8 9 10 11 12 13 14 15 16 17 18 19 20 21 22 23 24 25 26 27 28 29 30 31 32 33 34 35 36 37 38 39 40 41 42 43 44 45 46 47 48 49 50

000
ASUS43 KBIS 240020
RWRND

NORTH DAKOTA REGIONAL WEATHER ROUNDUP
NATIONAL WEATHER SERVICE BISMARCK ND
700 PM CDT TUE SEP 23 2014

NOTE: "FAIR" INDICATES FEW OR NO CLOUDS BELOW 12,000 FEET WITH NO
SIGNIFICANT WEATHER AND/OR OBSTRUCTIONS TO VISIBILITY.


NDZ001>003-009>011-017-240100-
NORTHWEST NORTH DAKOTA

CITY           SKY/WX    TMP DP  RH WIND       PRES   REMARKS
WILLISTON      CLEAR     82  53  36 S3        29.82S
6HR MIN TEMP:  73; 6HR MAX TEMP:  85;

MINOT          CLEAR     71  57  61 SE13      29.85S
MINOT AFB      CLEAR     72  60  65 S14       29.84S
$$

NDZ018>021-031>035-040>046-240100-
SOUTHWEST NORTH DAKOTA

CITY           SKY/WX    TMP DP  RH WIND       PRES   REMARKS
BISMARCK       CLOUDY    64  57  78 SE10      29.93S
6HR MIN TEMP:  63; 6HR MAX TEMP:  72;

DICKINSON      CLEAR     74  59  59 SE9       29.85R
GARRISON         N/A     67  58  72 SE12      29.88S
6HR MIN TEMP:  67; 6HR MAX TEMP:  77;

HETTINGER ARPT CLEAR     74  56  53 SE10      29.88S
$$

NDZ004>008-012>016-024-026-027-054-240100-
NORTHEAST NORTH DAKOTA

CITY           SKY/WX    TMP DP  RH WIND       PRES   REMARKS
GRAND FORKS    PTCLDY    69  50  50 S22G30    29.99R
GRND FRKS AFB  CLEAR     69  52  53 S22G31    29.98R
DEVILS LAKE    CLOUDY    64  52  63 S21G29    29.95R
$$

NDZ022-023-025-028>030-036>039-047>053-240100-
SOUTHEAST NORTH DAKOTA

CITY           SKY/WX    TMP DP  RH WIND       PRES   REMARKS
FARGO          CLOUDY    65  52  62 SE15G21   30.03S
6HR MIN TEMP:  65; 6HR MAX TEMP:  77;

JAMESTOWN      CLOUDY    60  53  77 S22G29    29.98S
$$



USA.gov is the U.S. government's official web portal to all federal, state and local government web resources and services.